Location: *
(41.7492°S, 135.4150°W)
Time: 20:48:49
(UTC+00:00)

TIGRISAT - Pass Details

Date: 05 July 2022
Orbit: 604 x 686 km, 97.7° (Epoch: 14 August)

Event Time Altitude Azimuth Distance (km) Brightness Sun altitude
Rises 02:32:41 0° 14° (NNE) 2,962 ? -9.1°
Reaches altitude 10° 02:34:51 10° 14° (NNE) 2,073 ? -9.4°
Maximum altitude 02:39:24 90° 62° (ENE) 682 ? -10.2°
Drops below altitude 10° 02:44:07 10° 192° (SSW) 2,148 ? -11.1°
Sets 02:46:24 0° 192° (SSW) 3,079 ? -11.5°
